Regional Weather Roundup
Issued by NWS Charleston, WV

Home | Current Version | Previous Version | Graphics & Text | Print | Product List | Glossary On
Versions: 1 2 3 4 5 6 7 8 9 10 11 12 13 14 15 16 17 18 19 20 21 22 23 24 25 26 27 28 29 30 31 32 33 34 35 36 37 38 39 40 41 42 43 44 45 46 47 48 49 50
000
ASUS41 KRLX 270510
RWRRLX
West Virginia Regional Weather Roundup
National Weather Service Charleston WV
1200 AM EST FRI FEB 27 2015

Note: "fair" indicates few or no clouds below 12,000 feet with no
significant weather and/or obstructions to visibility.

WVZ003-270600-
Northern Panhandle of West Virginia

CITY           SKY/WX    TMP DP  RH WIND       PRES   REMARKS
WHEELING       LGT SNOW  11   5  77 NW10      30.23R WCI  -3
$$

WVZ009-270600-
Northwest West Virginia

CITY           SKY/WX    TMP DP  RH WIND       PRES   REMARKS
PARKERSBURG    LGT SNOW  15  10  80 NW7       30.30R WCI   5
$$

WVZ006-270600-
Western West Virginia

CITY           SKY/WX    TMP DP  RH WIND       PRES   REMARKS
HUNTINGTON     FLURRIES  17  12  80 N7        30.28R WCI   8
$$

WVZ015-270600-
West Central West Virginia

CITY           SKY/WX    TMP DP  RH WIND       PRES   REMARKS
CHARLESTON     FLURRIES  23  16  74 NW10      30.23R
$$

WVZ022-031-270600-
North Central West Virginia

CITY           SKY/WX    TMP DP  RH WIND       PRES   REMARKS
CLARKSBURG     LGT SNOW  20  15  81 NW7       30.18R
MORGANTOWN     LGT SNOW N/A N/A N/A NW6       30.20R
$$

WVZ025-035-042-045-270600-
Southern West Virginia

CITY           SKY/WX    TMP DP  RH WIND       PRES   REMARKS
BECKLEY        CLOUDY    24  13  62 NW8       30.09R
LOGAN          CLOUDY    25  16  68 N5        30.15R
BLUEFIELD      CLOUDY    27  19  72 NW7       30.07R
LEWISBURG      CLOUDY    25  17  70 NW5       30.08R
$$

WVZ047-270600-
Northern Mountains of West Virginia

CITY           SKY/WX    TMP DP  RH WIND       PRES   REMARKS
ELKINS         CLOUDY   N/A N/A N/A NW3       30.10R
$$

WVZ052-270600-
Eastern Panhandle of West Virginia

CITY           SKY/WX    TMP DP  RH WIND       PRES   REMARKS
MARTINSBURG    MOCLDY    29  22  75 CALM      30.13R HAZE
PETERSBURG     MOCLDY    31  18  58 CALM      30.13R
$$



USA.gov is the U.S. government's official web portal to all federal, state and local government web resources and services.